[[{"header":{"parameterUnit":"m.s-1","parameterCategory":1,"la1":30.2991,"la2":30.254,"lo1":-89.0895,"lo2":-89.0444,"dy":0.0017,"dx":0.0017,"nx":28,"ny":28,"refTime":"2023-11-07T09:00:00:Z","depth":0,"parameterNumber":2,"parameterNumberName":"U-component_of_WINDS"},"data":[0,0,0,0,0,0,0,0,0,0,0,0,0,0,0,0,0,0,0,0,0,0,0,0,0,0,0,0,0,0,0,0,0,0,0,0,0,0,0,0,0,0,0,0,0,0,0,0,0,0,0,0,0,0,0,0,0,0,-0.6678,-0.6678,0,-0.67,-0.6701,-0.6701,-0.6736,-0.6736,-0.6737,-0.6738,-0.6758,-0.6758,-0.6758,0,0,0,0,0,0,0,0,0,0,0,0,0,-0.6662,-0.6662,-0.6678,-0.6678,-0.6678,-0.67,-0.6701,-0.6701,-0.6736,-0.6736,-0.6737,-0.6738,-0.6759,-0.6758,-0.6758,0,0,0,0,0,0,0,0,0,0,0,0,0,-0.6675,-0.6662,-0.6678,-0.6698,-0.67,-0.67,-0.6701,-0.6701,-0.6735,-0.6736,-0.6737,-0.6738,-0.6759,-0.6758,-0.6758,-0.6739,0,0,-0.6758,-0.6758,0,0,0,0,0,0,0,0,-0.6674,-0.6676,-0.6695,-0.6697,-0.6699,-0.6716,-0.6703,-0.6714,-0.6735,-0.6722,-0.6738,-0.6739,-0.6744,-0.6745,-0.6747,-0.674,-0.6741,-0.6758,-0.6758,-0.6758,-0.6758,0,0,0,0,0,0,0,-0.6673,-0.6675,-0.6687,-0.6695,-0.6698,-0.6706,-0.6709,-0.6705,-0.6727,-0.6723,-0.6726,-0.6728,-0.6745,-0.6747,-0.6748,-0.6741,-0.6758,-0.6758,-0.6758,-0.6758,-0.6718,-0.6717,0,0,0,0,0,0,-0.667,-0.6674,-0.6686,-0.6687,-0.6689,-0.6705,-0.6708,-0.671,-0.6727,-0.6731,-0.6727,-0.673,-0.6746,-0.6748,-0.6748,-0.6725,-0.6758,-0.6758,-0.6758,-0.6719,-0.6718,-0.6717,0,0,0,0,0,0,-0.6669,-0.667,-0.6685,-0.6681,-0.6684,-0.6704,-0.6706,-0.671,-0.6712,-0.673,-0.6734,-0.6725,-0.6747,-0.6749,-0.6741,-0.6727,-0.6758,-0.6758,-0.672,-0.6719,-0.6717,-0.668,0,0,0,0,0,0,-0.6669,-0.667,-0.6664,-0.6681,-0.6684,-0.6678,-0.6705,-0.671,-0.6712,-0.6715,-0.673,-0.6733,-0.6748,-0.6741,-0.6741,-0.6727,-0.6758,-0.6722,-0.672,-0.6718,-0.6683,-0.6677,-0.6673,0,0,0,0,0,-0.6668,-0.6652,-0.6663,-0.6664,-0.6676,-0.6677,-0.6679,-0.6697,-0.6711,-0.6704,-0.6716,-0.6732,-0.6729,-0.674,-0.674,-0.6726,-0.6723,-0.672,-0.6718,-0.6685,-0.6679,-0.6673,0,0,0,0,0,0,-0.6632,-0.6655,-0.6667,-0.6657,-0.6665,-0.6683,-0.6675,-0.669,-0.6694,-0.6696,-0.6719,-0.6721,-0.671,-0.6718,-0.673,-0.6708,-0.6728,-0.6726,-0.6703,-0.6697,-0.6692,-0.669,-0.6758,0,0,0,0,0,-0.6623,-0.6623,-0.6642,-0.6631,-0.6635,-0.6654,-0.6655,-0.6668,-0.6677,-0.668,-0.6692,-0.6699,-0.6699,-0.6699,-0.67,-0.6685,-0.6687,-0.6675,-0.667,-0.6666,-0.6663,-0.6653,-0.6648,-0.6709,-0.6709,-0.6709,0,0,-0.6604,-0.6617,-0.6615,-0.6624,-0.6632,-0.6629,-0.6656,-0.6653,-0.6651,-0.668,-0.6673,-0.6681,-0.6691,-0.6679,-0.6674,-0.6684,-0.6647,-0.6663,-0.666,-0.6659,-0.665,-0.6644,-0.6639,-0.6708,-0.6708,-0.6708,0,0,-0.6568,-0.6578,-0.6569,-0.6576,-0.6588,-0.6601,-0.6599,-0.6615,-0.6621,-0.6615,-0.6636,-0.6634,-0.6634,-0.664,-0.6642,-0.6608,-0.6622,-0.6608,-0.6582,-0.6572,-0.6567,-0.6563,-0.6548,-0.6543,-0.6605,-0.6605,-0.6605,0,-0.6543,-0.6541,-0.6562,-0.6558,-0.656,-0.6587,-0.6577,-0.6583,-0.6594,-0.6594,-0.6607,-0.6607,-0.6615,-0.6604,-0.6595,-0.6597,-0.6594,-0.6605,-0.6566,-0.6562,-0.6558,-0.6545,-0.6539,-0.6603,-0.6603,-0.6603,-0.6604,0,-0.6508,-0.6506,-0.6498,-0.6508,-0.651,-0.6502,-0.6522,-0.6521,-0.6534,-0.6545,-0.6538,-0.6549,-0.6552,-0.6551,-0.6564,-0.6541,-0.6547,-0.6562,-0.6583,-0.655,-0.6537,-0.6532,-0.66,-0.6601,-0.6601,-0.6602,0,0,-0.6449,-0.6471,-0.6467,-0.6471,-0.6486,-0.6485,-0.6478,-0.6482,-0.648,-0.6487,-0.648,-0.648,-0.6494,-0.6497,-0.6511,-0.6503,-0.6472,-0.6519,-0.652,-0.6508,-0.6444,-0.643,-0.6424,-0.6483,-0.6482,-0.6481,-0.6443,0,-0.6414,-0.6404,-0.6423,-0.6408,-0.6406,-0.6431,-0.6425,-0.6432,-0.6443,-0.6441,-0.6453,-0.6451,-0.6471,-0.6473,-0.6466,-0.6477,-0.6459,-0.6481,-0.6475,-0.6475,-0.6469,-0.6418,-0.6404,-0.6367,-0.6438,-0.6437,-0.6437,0,-0.6372,-0.6376,-0.6361,-0.6375,-0.6375,-0.6369,-0.6373,-0.6373,-0.6381,-0.6389,-0.6392,-0.6409,-0.6402,-0.6424,-0.6413,-0.6427,-0.6427,-0.6432,-0.6431,-0.6429,-0.6452,-0.6413,-0.6356,-0.6349,-0.643,-0.643,-0.6431,0,-0.6327,-0.633,-0.6321,-0.6324,-0.6341,-0.6336,-0.6342,-0.6352,-0.6353,-0.6357,-0.6357,-0.636,-0.636,-0.6362,-0.6378,-0.6392,-0.6365,-0.6388,-0.6369,-0.6369,-0.636,-0.636,-0.63,-0.6364,-0.6364,-0.6364,-0.6364,0,-0.6285,-0.6274,-0.6301,-0.6294,-0.6283,-0.6304,-0.6292,-0.6301,-0.6309,-0.6305,-0.6327,-0.6322,-0.6345,-0.6342,-0.6355,-0.6343,-0.6344,-0.6349,-0.6352,-0.6345,-0.6344,-0.6343,-0.6345,-0.6363,-0.6363,-0.6363,-0.6363,0,-0.6232,-0.625,-0.6241,-0.6258,-0.6262,-0.6252,-0.6266,-0.626,-0.6273,-0.6266,-0.6266,-0.6284,-0.6282,-0.6299,-0.63,-0.6308,-0.6289,-0.6298,-0.6286,-0.6288,-0.6267,-0.6268,-0.6202,-0.6194,-0.6265,-0.6264,-0.6264,0,-0.6202,-0.6195,-0.6211,-0.6209,-0.6215,-0.6213,-0.6213,-0.6235,-0.6234,-0.6243,-0.6236,-0.6236,-0.6236,-0.6231,-0.6244,-0.6244,-0.6251,-0.6228,-0.6251,-0.6244,-0.6248,-0.6247,-0.6245,-0.6223,-0.6222,-0.6221,-0.622,0,-0.6147,-0.6156,-0.6157,-0.616,-0.616,-0.6164,-0.6169,-0.6166,-0.6189,-0.6187,-0.6185,-0.6186,-0.6186,-0.6185,-0.6188,-0.6194,-0.6209,-0.6213,-0.6209,-0.62,-0.6193,-0.6194,-0.627,-0.6214,-0.6215,-0.6215,-0.6216,-0.6216,-0.6104,-0.6097,-0.6107,-0.6106,-0.6112,-0.6116,-0.6111,-0.6123,-0.6122,-0.6124,-0.6137,-0.6132,-0.614,-0.6145,-0.6149,-0.6145,-0.6156,-0.615,-0.6148,-0.6145,-0.614,-0.6196,-0.6146,-0.6146,-0.6146,-0.6147,-0.6147,0,-0.6048,-0.6055,-0.6055,-0.6061,-0.606,-0.6077,-0.6083,-0.608,-0.6076,-0.6082,-0.6083,-0.6079,-0.6078,-0.6091,-0.6091,-0.6084,-0.6092,-0.6083,-0.6083,-0.6083,-0.6132,-0.6135,-0.6077,-0.6077,-0.6077,-0.6077,-0.6077,-0.6077,-0.6018,-0.6007,-0.6017,-0.6009,-0.6017,-0.6013,-0.6014,-0.6017,-0.6022,-0.6018,-0.6017,-0.6026,-0.6034,-0.6034,-0.6033,-0.6037,-0.6035,-0.6023,-0.6029,-0.6074,-0.608,-0.6086,-0.6089,-0.6023,-0.6023,-0.5981,-0.598,-0.598]},{"header":{"parameterUnit":"m.s-1","parameterCategory":1,"la1":30.2991,"la2":30.254,"lo1":-89.0895,"lo2":-89.0444,"dy":0.0017,"dx":0.0017,"nx":28,"ny":28,"refTime":"2023-11-07T09:00:00:Z","depth":0,"parameterNumber":3,"parameterNumberName":"V-component_of_WINDS"},"data":[0,0,0,0,0,0,0,0,0,0,0,0,0,0,0,0,0,0,0,0,0,0,0,0,0,0,0,0,0,0,0,0,0,0,0,0,0,0,0,0,0,0,0,0,0,0,0,0,0,0,0,0,0,0,0,0,0,0,0.6035,0.6036,0,0.607,0.607,0.6071,0.6064,0.6064,0.6063,0.6063,0.6099,0.6101,0.6103,0,0,0,0,0,0,0,0,0,0,0,0,0,0.5966,0.5967,0.6035,0.6036,0.6036,0.607,0.607,0.6071,0.6065,0.6064,0.6063,0.6062,0.6099,0.6101,0.6103,0,0,0,0,0,0,0,0,0,0,0,0,0,0.5998,0.5968,0.6035,0.6037,0.6037,0.607,0.607,0.6071,0.6065,0.6064,0.6063,0.6062,0.6098,0.6101,0.6103,0.6136,0,0,0.611,0.6111,0,0,0,0,0,0,0,0,0.5996,0.6001,0.6036,0.6037,0.6037,0.6062,0.606,0.6093,0.6065,0.6054,0.6063,0.6062,0.6088,0.6091,0.61,0.6138,0.6139,0.611,0.6112,0.6113,0.6113,0,0,0,0,0,0,0,0.5994,0.5999,0.6049,0.6037,0.6038,0.6037,0.604,0.6066,0.6076,0.6055,0.6055,0.6059,0.6088,0.6097,0.61,0.614,0.611,0.6112,0.6114,0.6115,0.621,0.6211,0,0,0,0,0,0,0.5991,0.5997,0.6048,0.605,0.6014,0.6039,0.6043,0.6055,0.6076,0.6078,0.606,0.6059,0.6094,0.6098,0.6102,0.6144,0.6113,0.6115,0.6116,0.6209,0.6211,0.6212,0,0,0,0,0,0,0.5989,0.5995,0.6046,0.6024,0.603,0.6041,0.6055,0.6056,0.6066,0.6079,0.6081,0.6067,0.6093,0.6098,0.6128,0.6145,0.6116,0.6118,0.6208,0.621,0.6211,0.6228,0,0,0,0,0,0,0.5987,0.5995,0.6007,0.6024,0.6031,0.6071,0.6056,0.6058,0.6069,0.6068,0.6087,0.6089,0.6093,0.6125,0.6131,0.6148,0.612,0.6206,0.6209,0.6211,0.6226,0.623,0.6233,0,0,0,0,0,0.5985,0.601,0.6007,0.6014,0.6046,0.6072,0.6077,0.6081,0.6071,0.6084,0.6093,0.6088,0.6142,0.6128,0.6134,0.6153,0.6205,0.6208,0.621,0.6224,0.6229,0.6233,0,0,0,0,0,0,0.5994,0.6012,0.6009,0.604,0.6055,0.6071,0.6087,0.6085,0.6103,0.6101,0.6106,0.611,0.6141,0.6149,0.6133,0.6187,0.6173,0.6177,0.6181,0.6186,0.6189,0.6187,0.6122,0,0,0,0,0,0.5999,0.6019,0.6033,0.6059,0.6067,0.6076,0.6087,0.6089,0.6105,0.6111,0.6122,0.6138,0.6159,0.6172,0.6192,0.6227,0.6232,0.6243,0.6247,0.625,0.6253,0.6275,0.6281,0.622,0.622,0.622,0,0,0.6011,0.6023,0.6035,0.6061,0.6073,0.6094,0.6081,0.6103,0.612,0.6114,0.6144,0.6153,0.6171,0.6204,0.6219,0.6212,0.6272,0.6253,0.6255,0.6257,0.6279,0.6285,0.629,0.6222,0.6222,0.6221,0,0,0.6044,0.6054,0.6078,0.609,0.6108,0.6114,0.612,0.6137,0.6143,0.6173,0.6171,0.619,0.6225,0.6239,0.6251,0.6291,0.6289,0.6297,0.6318,0.6339,0.6344,0.6348,0.6365,0.6371,0.6301,0.6301,0.6301,0,0.6056,0.6087,0.609,0.6114,0.6126,0.6123,0.6149,0.616,0.6184,0.6194,0.6185,0.6231,0.6243,0.6281,0.6291,0.6299,0.6308,0.6296,0.6343,0.6347,0.6351,0.6368,0.6374,0.6302,0.6302,0.6302,0.6302,0,0.6103,0.6125,0.6142,0.6166,0.618,0.6204,0.6212,0.6227,0.6228,0.6236,0.6268,0.6282,0.6306,0.6314,0.6315,0.6353,0.6349,0.6341,0.6327,0.6358,0.6374,0.638,0.6304,0.6303,0.6303,0.6303,0,0,0.6141,0.6168,0.6174,0.6186,0.6207,0.6224,0.6249,0.6273,0.6287,0.6303,0.6326,0.6357,0.6351,0.6364,0.6367,0.6385,0.642,0.6376,0.6377,0.6386,0.6466,0.6473,0.648,0.6418,0.6419,0.642,0.6466,0,0.6177,0.6221,0.6226,0.6266,0.6288,0.6286,0.6308,0.6324,0.6332,0.6353,0.6362,0.6385,0.6374,0.6383,0.6401,0.6412,0.6437,0.6408,0.6441,0.6442,0.6439,0.6488,0.6494,0.6537,0.6471,0.6472,0.6473,0,0.6225,0.6245,0.6287,0.6307,0.6316,0.6336,0.636,0.6378,0.6397,0.6402,0.6418,0.6419,0.6447,0.6431,0.647,0.6451,0.6465,0.6473,0.6475,0.6479,0.6461,0.6496,0.655,0.6557,0.6482,0.6481,0.6481,0,0.6252,0.6289,0.6319,0.6329,0.6353,0.6367,0.6378,0.6396,0.6411,0.6431,0.6442,0.6465,0.6478,0.6497,0.6505,0.6492,0.6546,0.6529,0.6552,0.6552,0.6565,0.6564,0.6624,0.657,0.657,0.657,0.657,0,0.6293,0.632,0.6332,0.6351,0.6382,0.6388,0.6418,0.6428,0.6444,0.6467,0.6466,0.6487,0.6495,0.6518,0.6525,0.6559,0.6564,0.657,0.6572,0.6571,0.6571,0.6582,0.658,0.6572,0.6571,0.6571,0.6571,0,0.6329,0.6338,0.6372,0.6392,0.6398,0.642,0.6438,0.6457,0.6466,0.6494,0.6501,0.6515,0.6542,0.6552,0.6584,0.6589,0.6629,0.6627,0.6623,0.6624,0.6647,0.6646,0.6717,0.6728,0.6665,0.6666,0.6666,0,0.6356,0.6376,0.6399,0.6414,0.6426,0.6449,0.6465,0.6472,0.6488,0.6513,0.653,0.6557,0.6579,0.6623,0.6637,0.6663,0.6663,0.6686,0.6667,0.6667,0.6666,0.6666,0.6669,0.669,0.6691,0.6691,0.6692,0,0.6403,0.6407,0.6429,0.6453,0.6472,0.6492,0.6511,0.6523,0.6533,0.6552,0.658,0.6597,0.6632,0.666,0.6687,0.6699,0.6698,0.6698,0.6705,0.6706,0.6704,0.6708,0.6635,0.6696,0.6696,0.6696,0.6695,0.6695,0.6436,0.6456,0.6476,0.6501,0.6516,0.6535,0.6555,0.6566,0.659,0.6619,0.6621,0.6652,0.6673,0.671,0.6723,0.6749,0.6742,0.6752,0.6755,0.6758,0.6761,0.6698,0.6753,0.6753,0.6753,0.6753,0.6753,0,0.6486,0.6499,0.6522,0.6549,0.657,0.6567,0.6588,0.6606,0.6634,0.6653,0.6675,0.6709,0.6737,0.6753,0.6781,0.6799,0.68,0.6806,0.6806,0.681,0.6764,0.6756,0.6806,0.6806,0.6806,0.6805,0.6805,0.6805,0.6514,0.6547,0.6554,0.6596,0.6609,0.664,0.6653,0.6671,0.6686,0.6724,0.6747,0.6758,0.6777,0.6807,0.6833,0.6837,0.6849,0.6857,0.6861,0.6818,0.6812,0.6807,0.68,0.6858,0.6858,0.6905,0.6905,0.6906]}]]